Location: Goettingen
(51.5300°N, 9.9433°E)
Time: 05:38:35
(UTC+02:00)

ISS - Pass Details

Date: 31 March 2020
Orbit: 417 x 423 km, 51.6° (Epoch: 29 March)

Event Time Altitude Azimuth Distance (km) Brightness Sun altitude
Rises 21:44:28 0° 284° (WNW) 2,363 1.5 -17.1°
Reaches altitude 10° 21:46:40 10° 275° (W) 1,497 0.0 -17.4°
Maximum altitude 21:49:45 34° 209° (SSW) 715 -2.7 -17.8°
Enters shadow 21:50:14 32° 189° (S) 744 -2.7 -17.9°
